sat.trackr.live / text

‹ back to catalog

YIJIAN

NORAD 41899 · 2016-081B

PAYLOAD ACTIVE UNKNOWN

§ Identity

Operator
Country
PRC
Launch date
2016-12-21
Launch site
JSC
Launch vehicle
Mass (kg)
RCS (m²)
0.40

External: N2YO · Heavens-Above · Gunter

§ Orbital elements

Epoch: 2026-09-19T18:57:32.611392Z

Period
98.57 min
Inclination
98.5444°
Eccentricity
0.0021282
Mean motion
14.60855978 rev/d
Perigee alt
675.4 km
Apogee alt
705.5 km
Semi-major
7,068.5 km
B*
8.4984e-5
RAAN
263.6544°
Arg perigee
19.7008°
Mean anomaly
340.5009°
Rev number
51,840

§ Raw data

YIJIAN1 41899U 16081B   26262.78996078  .00000366  00000+0  84984-4 0  99902 41899  98.5444 263.6544 0021282  19.7008 340.5009 14.60855978518409

JSON: /api/v1/satellites/41899 · /tle

For live sub-satellite position, see the globe view (requires WebGL).

§ Visibility from observer

Set your observer location to see the next 7 days of passes ≥ 10°. The values pass through the URL so the page stays shareable.

No JS? Fill the form by hand. The geolocation button needs JavaScript.